shoulder
new_line
new_line
first
second
third
Al di la della Luna; Beyond the Moon; Astrophotography; Astrofotografia; Danilo Pivato
 
 
         
         
2012 - 2013
Orbital Elements

Epoch 2012 Nov. 9.0 TT = JDT 2456240.5
T 2012 Nov. 28.68818 TT                                                          MPC
q   1.1417940            (2000.0)                         P                     Q
z  +0.0013301      Peri.  139.29062      -0.15109435     -0.06527492
                           Node   279.03904     +0.42305020     +0.89755354
e   0.9984813      Incl.     92.84785     +0.89341985      -0.43604681
 
         
         
2012.12.13
2013.01.04
2013.01.05
2013.01.11
 
         
         
         
         
         
         
         

 

       
 
Since: 01/01/2004
 
           
Since: 01/11/2010